128  
ASUS44 KSJT 071200  
RWRSJT  
WEST CENTRAL TEXAS REGIONAL WEATHER ROUNDUP  
NATIONAL WEATHER SERVICE SAN ANGELO TX  
600 AM CST TUE FEB 07 2023  
 
NOTE: "FAIR" INDICATES FEW OR NO CLOUDS BELOW 12,000 FEET WITH NO  
SIGNIFICANT WEATHER AND/OR S TO VISIBILITY
.  
 
TXZ049-054-064>066-071>073-076>078-098-099-113-114-127-128-139-140-  
154-155-168>170-071300-   
..LOCATIONS ACROSS WEST CENTRAL TEXAS
 
 
 
CITY SKY/WX TMP DP RH WIND PRES REMARKS
 
SAN ANGELO LGT RAIN 56 54 93 NE13G18 29.91R FOG  
ABILENE LGT RAIN 50 42 74 NW13 29.97R  
DYESS AFB LGT RAIN 49 35 58 N14 29.95R  
JUNCTION CLOUDY 65 58 78 S5 29.87R  
SWEETWATER NOT AVBL  
BROWNWOOD NOT AVBL  
COLEMAN NOT AVBL  
SAN SABA NOT AVBL  
SONORA NOT AVBL  
OZONA NOT AVBL  
BRADY NOT AVBL  

 
 
TXZ001-004-007-008-010-012-014-016-OKZ002-071300-  
TEXAS PANHANDLE/OKLAHOMA PANHANDLE  
 
CITY SKY/WX TMP DP RH WIND PRES REMARKS
 
AMARILLO CLOUDY 32 27 81 N20 30.09R WCI 20  
BORGER CLEAR 35 28 75 N12 30.16R WCI 27  
CANADIAN NOT AVBL  
DALHART MOCLDY 34 25 69 N14 30.16R WCI 25  
DUMAS NOT AVBL  
GUYMON NOT AVBL  
HEREFORD NOT AVBL  
PAMPA NOT AVBL  
PERRYTON CLEAR 28 24 88 N14 30.13S WCI 16  

 
 
TXZ035-026-045-048-071300-  
SOUTHERN PANHANDLE/SOUTH PLAINS/ROLLING PLAINS  
 
CITY SKY/WX TMP DP RH WIND PRES REMARKS
 
LUBBOCK CLOUDY 40 29 64 NE25G35 30.02R WCI 29  
SNYDER CLOUDY 47 31 53 NE28G33 29.98R WCI 38  
CHILDRESS CLOUDY 44 31 60 N18G25 30.07R WCI 36  
SEMINOLE NOT AVBL  

 
 
TXZ060>062-071300-  
PERMIAN BASIN  
 
CITY SKY/WX TMP DP RH WIND PRES REMARKS
 
MIDLAND CLOUDY 47 32 56 NE23G33 29.96R WCI 39  
ODESSA CLOUDY 48 30 49 NE21G32 29.97R  
WINK CLOUDY 47 28 47 N17 29.99R  

 
 
TXZ075-082-271-274-277-419-071300-  
FAR WEST/SOUTHWEST MOUNTAINS/TRANS PECOS  
 
CITY SKY/WX TMP DP RH WIND PRES REMARKS
 
ALPINE NOT AVBL  
DRYDEN N/A 54 53 97 N8 29.88R  
EL PASO CLEAR 41 22 46 SW10 30.01R WCI 35  
FORT STOCKTON MOCLDY 48 26 42 NW23G37 29.96R  
GUADALUPE PASS NOT AVBL  
MARFA PTCLDY 42 19 39 N14 29.99R WCI 35  
PECOS NOT AVBL  

 
 
TXZ118-119-071300-  
DALLAS/FORT WORTH METROPLEX  
 
CITY SKY/WX TMP DP RH WIND PRES REMARKS
 
DFW AIRPORT CLOUDY 60 56 86 SE8 29.98R  
FTW MEACHAM CLOUDY 61 59 93 E9 29.96S  
DAL-EXECUTIVE CLOUDY 59 55 87 SE7 29.99R  
GRAND PRAIRIE CLOUDY 60 55 82 E5 30.00R  
ADDISON CLOUDY 61 55 82 E8 30.00  
MESQUITE NOT AVBL  
LANCASTER NOT AVBL  

 
 
TXZ092-093-103-131-134-071300-  
NORTH CENTRAL TEXAS  
 
CITY SKY/WX TMP DP RH WIND PRES REMARKS
 
SHRMAN/DENISON NOT AVBL  
GAINESVILLE NOT AVBL  
BRIDGEPORT NOT AVBL  
DENTON CLOUDY 60 57 89 SE9 29.97R  
WAXAHACHIE NOT AVBL  
GRANBURY CLOUDY 60 58 95 E6 29.97R  

 
 
TXZ085-086-115-141-071300-  
WESTERN NORTH TEXAS  
 
CITY SKY/WX TMP DP RH WIND PRES REMARKS
 
WICHITA FALLS CLOUDY 48 43 82 NE18G26 30.03R  
VERNON NOT AVBL  
BRECKENRIDGE RAIN 53 46 78 NW3 29.95R  
COMANCHE NOT AVBL  

 
 
TXZ145-158-159-173-191-192-194-205-207-220-223-071300-  
CENTRAL AND SOUTH CENTRAL TEXAS  
 
CITY SKY/WX TMP DP RH WIND PRES REMARKS
 
AUSTIN/BERGSTM LGT RAIN 65 64 97 S12 29.90S  
WACO CLOUDY 60 59 96 E8 29.92R  
HILLSBORO CLOUDY 61 61 100 E8 29.96R  
TEMPLE CLOUDY 62 61 96 SE15 29.91R  
KILLEEN-GRAY CLOUDY 62 60 94 SE9 29.89R  
FORT HOOD CLOUDY 62 61 95 S9 29.90R  
GEORGETOWN CLOUDY 64 62 93 SE9 29.92S  
LAGO VISTA CLOUDY 64 62 94 S8 29.91R  
SAN MARCOS CLOUDY N/A N/A N/A SE12 N/A  
NEW BRAUNFELS CLOUDY 67 64 90 S12 29.89R  
RANDOLPH AFB CLOUDY 65 65 99 SE12 29.87R  
SAN ANTONIO CLOUDY 65 62 90 SE9 29.89S  
STINSON CLOUDY 67 64 90 SE10 29.87R  
PLEASANTON NOT AVBL  
LA GRANGE CLOUDY 65 65 100 SE7 29.92R  
GIDDINGS CLOUDY 64 62 92 S7 29.93R  

 
 
TXZ095-096-136-137-148-152-071300-  
EAST TEXAS  
 
CITY SKY/WX TMP DP RH WIND PRES REMARKS
 
PARIS CLOUDY 55 55 100 SE12 30.02R  
CLARKSVILLE NOT AVBL  
TYLER CLOUDY 58 55 90 E5 30.02R  
LONGVIEW CLOUDY 57 50 78 E6 30.04R  
PALESTINE NOT AVBL  
NACOGDOCHES CLOUDY 56 56 100 SE7 30.03R  

 
 
TXZ171-183-184-186-188-203-204-071300-  
TEXAS HILL COUNTRY AND EDWARDS PLATEAU  
 
CITY SKY/WX TMP DP RH WIND PRES REMARKS
 
LLANO NOT AVBL  
HORSESHOE BAY CLOUDY 66 61 82 S12 29.88F  
KERRVILLE NOT AVBL  
FREDERICKSBRG CLOUDY 64 60 87 S10G17 29.88R  
ROCKSPRINGS NOT AVBL  
HONDO CLOUDY 66 63 90 SE9 29.88R  
UVALDE CLOUDY 65 65 100 SE8 29.88R  
DEL RIO CLOUDY 66 60 81 SE7 29.81R  

 
 
TXZ163-177-195>197-199-213-226-237-071300-  
SOUTHEAST TEXAS  
 
CITY SKY/WX TMP DP RH WIND PRES REMARKS
 
COLLEGE STN CLOUDY 65 60 84 SE13 29.93S  
CALDWELL NOT AVBL  
CROCKETT NOT AVBL  
BRENHAM NOT AVBL  
HUNTSVILLE CLOUDY 62 58 86 SE7 29.97R  
CONROE CLOUDY 61 59 93 E5 29.98R  
HOUSTON BUSH MOCLDY 62 60 93 E6 29.96S  
HOUSTON HOBBY MOCLDY 64 60 87 SE7 29.96S  
PERLAND NOT AVBL  
WHARTON NOT AVBL  

 
 
TXZ215-216-236-237-438-071300-  
THE UPPER TEXAS COAST  
 
CITY SKY/WX TMP DP RH WIND PRES REMARKS
 
ORANGE NOT AVBL  
PORT ARTHUR PTCLDY 60 59 96 E9 30.01R  
GALVESTON MOCLDY 65 61 87 SE14 29.98S  
ANGLETON MOCLDY 68 63 84 SE12 29.96R  
BAY CITY NOT AVBL  

 
 
TXZ229-232-234-239-242-243-245-247-249-250-  
253-255-257-343-347-443-071300-  
TEXAS COASTAL BEND, RIO GRANDE PLAINS DEEP SOUTH TEXAS  
 
CITY SKY/WX TMP DP RH WIND PRES REMARKS
 
VICTORIA CLOUDY 67 66 97 SE10 29.92R  
BEEVILLE CLOUDY 68 64 88 SE12G21 29.88S  
ROCKPORT CLOUDY 65 65 100 SE3 29.91R FOG  
PORT ARANSAS NOT AVBL  
PORT LAVACA NOT AVBL  
CORPUS CHRISTI CLOUDY 70 66 87 S17 29.89R  
KINGSVILLE NAS NOT AVBL  
COTULLA CLOUDY 68 62 81 SE7 29.85R  
LAREDO CLOUDY 68 63 84 SE10 29.83R  
BROWNSVILLE PTCLDY 69 66 90 SE20G28 29.87S  
PORT ISABEL CLEAR 70 67 90 SE17 29.87S  
HEBBRONVILLE NOT AVBL  
MCALLEN CLOUDY 70 66 87 S17G28 29.84R  
WESLACO NOT AVBL  
 
CLICK HERE TO GO TO PREVIOUS BULLETINS.

The Nexlab TX Page Main Text Page